Powrót do katalogu

GEESAT 1-01

AktywnyNaukaLEO
NORAD 52785·PAYLOAD·🇨🇳 China

Wystrzelony Jun 2, 2022 z Xichang Satellite Launch Center

Loading…

Następne Przeloty (najbliższe 24 godziny)

TLE

ŚwieżeSource: Space-Track

Epoka: Sep 14, 2026, 13:26 UTC

1 52785U 22058A   26257.56005115  .00001069  00000-0  16266-3 0  9999
2 52785  49.9933 149.6545 0021840 244.3338 115.5344 14.81589326233189

Śledź GEESAT 1-01 w czasie rzeczywistym z AllMySat

Download on the App Store